Find Yaogan 43-01-02

NORAD ID: 60459 Int'l Des: 2024-148 Owner: ZZB Country: CN Constellation: yaogan operational
LEOCIRCULAR

当前视图

正在加载3D地球...

About Yaogan 43-01-02

Yaogan 43-01-02 (NORAD 60459) is a yaogan constellation satellite launched Aug 16, 2024 by ZZB of CN. It operates in LEO, CIRCULAR orbit with a mass of 300.00 kg.

关于 Yaogan 43-01-02

正在加载描述...

即将过境

Passes for default location (London). Set your location on the main map for personalized predictions.

高度历史

Loading altitude history...

两行轨道根数

1 60459U 24148B 26194.59333715 .00008431 00000-0 23135-3 0 9994
2 60459 34.9939 324.6212 0007485 92.1709 267.9867 15.36465943106496
Epoch: Jul 13, 2026 • Age: 13 hours

当前状态

高度 451.4 km
远地点 / 近地点 N/A
速度 7.65 km/s
星下点 28.15°N, 110.81°E
发射日期 Aug 16, 2024
运行时间 1.9 years
类型 military

技术详情

分类 Payload
质量 300.00 kg
干质量 300.00 kg
总质量 300.00 kg
长度 2.50 m
直径 2.50 m
跨度 5.00 m
形状 Box + 2 Pan
制造商 SAST
阶段状态 In Orbit
所有者/国家 ZZB/CN

Most Searched